Bullhead City, AZ

2:27 AM MST on February 10, 2016 (GMT -0700)
Laughlin-Bullhead International

Weather History for KIFP - August, 2013

Change the Weather History Date:

Tuesday, August 27, 2013

  Actual Average Record
Temperature  
Mean Temperature 88 °F -  
Max Temperature 100 °F 103 °F 113 °F (2001)
Min Temperature 77 °F 82 °F 67 °F (1989)
Cooling Degree Days 24    
Growing Degree Days 38 (Base 50)    
Moisture  
Dew Point 63 °F    
Average Humidity 46    
Maximum Humidity 69    
Minimum Humidity 25    
Precipitation  
Precipitation 0.00 in - - ()
Sea Level Pressure  
Sea Level Pressure 29.82 in    
Wind  
Wind Speed 11 mph (NNE)    
Max Wind Speed 22 mph    
Max Gust Speed 26 mph    
Visibility 10 miles    
Events Rain    
Averages and records for this station are not official NWS values.
T = Trace of Precipitation, MM = Missing Value Source: NWS Daily Summary

Daily Weather History Graph

Daily Weather History Graph

Search for Another Location

Airport or City:

Trip Planner

Search our weather history database for the weather conditions in past years. The results will help you decide how hot, cold, wet, or windy it might be!

Date:

Astronomy

Aug. 27, 2013 Rise Set
Actual Time 6:07 AM MST 7:11 PM MST
Civil Twilight 5:41 AM MST 7:37 PM MST
Nautical Twilight 5:10 AM MST 8:08 PM MST
Astronomical Twilight 4:37 AM MST 8:40 PM MST
Moon 11:24 PM MST (8/27) 12:52 PM MST (8/27)
Length of Visible Light 13h 56m
Length of Day
13h 04m
Waning Gibbous, 56% of the Moon is Illuminated
Aug 27
Waning Gibbous
Aug 28
Last Quarter
Sep 5
New
Sep 12
First Quarter
Sep 19
Full

Hourly Weather History & Observations

Time (MST) Temp. Heat Index Dew Point Humidity Pressure Visibility Wind Dir Wind Speed Gust Speed Precip Events Conditions
12:15 AM 80.6 °F 82.7 °F 66.2 °F 61% 29.91 in 10.0 mi ENE 9.2 mph - N/A   Mostly Cloudy
12:35 AM 80.6 °F 82.7 °F 66.2 °F 61% 29.91 in 10.0 mi North 9.2 mph - N/A   Partly Cloudy
12:55 AM 80.6 °F 82.7 °F 66.2 °F 61% 29.91 in 10.0 mi North 13.8 mph - N/A   Partly Cloudy
1:15 AM 80.6 °F 82.7 °F 66.2 °F 61% 29.90 in 10.0 mi NE 11.5 mph - N/A   Partly Cloudy
1:35 AM 80.6 °F 82.7 °F 66.2 °F 61% 29.89 in 10.0 mi NNE 12.7 mph - N/A   Clear
1:55 AM 78.8 °F - 66.2 °F 65% 29.88 in 10.0 mi NNE 9.2 mph - N/A   Clear
2:15 AM 78.8 °F - 66.2 °F 65% 29.88 in 10.0 mi NNE 9.2 mph - N/A   Clear
2:35 AM 80.6 °F 82.3 °F 64.4 °F 58% 29.87 in 10.0 mi NE 10.4 mph - N/A   Clear
2:55 AM 78.8 °F - 64.4 °F 61% 29.87 in 10.0 mi NNE 13.8 mph - N/A   Clear
3:15 AM 78.8 °F - 64.4 °F 61% 29.86 in 10.0 mi NE 12.7 mph - N/A   Clear
3:35 AM 78.8 °F - 64.4 °F 61% 29.86 in 10.0 mi NE 16.1 mph - N/A   Clear
3:55 AM 78.8 °F - 66.2 °F 65% 29.85 in 10.0 mi NE 15.0 mph - N/A   Clear
4:15 AM 78.8 °F - 64.4 °F 61% 29.85 in 10.0 mi NNE 13.8 mph - N/A   Clear
4:35 AM 78.8 °F - 64.4 °F 61% 29.84 in 10.0 mi NNE 16.1 mph - N/A   Clear
4:55 AM 78.8 °F - 64.4 °F 61% 29.84 in 10.0 mi NNE 17.3 mph - N/A   Clear
5:15 AM 78.8 °F - 64.4 °F 61% 29.83 in 10.0 mi North 18.4 mph - N/A   Clear
5:35 AM 78.8 °F - 64.4 °F 61% 29.84 in 10.0 mi NNE 16.1 mph 24.2 mph N/A   Clear
5:55 AM 78.8 °F - 64.4 °F 61% 29.84 in 10.0 mi NNE 16.1 mph 24.2 mph N/A   Clear
6:15 AM 77.0 °F - 64.4 °F 65% 29.86 in 10.0 mi NNE 16.1 mph - N/A   Clear
6:35 AM 77.0 °F - 66.2 °F 69% 29.86 in 10.0 mi NNE 15.0 mph 20.7 mph N/A   Clear
6:55 AM 77.0 °F - 66.2 °F 69% 29.87 in 10.0 mi NNE 13.8 mph 20.7 mph N/A   Clear
7:15 AM 78.8 °F - 66.2 °F 65% 29.87 in 10.0 mi NNE 17.3 mph 23.0 mph N/A   Clear
7:35 AM 78.8 °F - 66.2 °F 65% 29.88 in 10.0 mi NNE 12.7 mph 20.7 mph N/A   Clear
7:55 AM 80.6 °F 82.3 °F 64.4 °F 58% 29.88 in 10.0 mi NNE 16.1 mph - N/A   Clear
8:15 AM 80.6 °F 82.3 °F 64.4 °F 58% 29.88 in 10.0 mi North 13.8 mph - N/A   Clear
8:35 AM 82.4 °F 83.9 °F 64.4 °F 54% 29.88 in 10.0 mi NNE 17.3 mph - N/A   Clear
8:55 AM 82.4 °F 83.9 °F 64.4 °F 54% 29.88 in 10.0 mi North 18.4 mph 21.9 mph N/A   Clear
9:15 AM 84.2 °F 85.6 °F 64.4 °F 51% 29.88 in 10.0 mi North 21.9 mph 26.5 mph N/A   Clear
9:35 AM 84.2 °F 85.6 °F 64.4 °F 51% 29.88 in 10.0 mi North 20.7 mph 25.3 mph N/A   Clear
9:55 AM 84.2 °F 85.6 °F 64.4 °F 51% 29.87 in 10.0 mi NNE 20.7 mph - N/A   Partly Cloudy
10:15 AM 86.0 °F 87.3 °F 64.4 °F 48% 29.87 in 10.0 mi NNE 19.6 mph 24.2 mph N/A   Partly Cloudy
10:35 AM 86.0 °F 87.3 °F 64.4 °F 48% 29.87 in 10.0 mi NNE 18.4 mph 21.9 mph N/A   Partly Cloudy
10:55 AM 87.8 °F 89.4 °F 64.4 °F 46% 29.87 in 10.0 mi North 17.3 mph 24.2 mph N/A   Partly Cloudy
11:15 AM 89.6 °F 91.1 °F 64.4 °F 43% 29.86 in 10.0 mi North 19.6 mph - N/A   Partly Cloudy
11:35 AM 89.6 °F 91.1 °F 64.4 °F 43% 29.86 in 10.0 mi North 17.3 mph - N/A   Scattered Clouds
11:55 AM 91.4 °F 92.1 °F 62.6 °F 38% 29.85 in 10.0 mi North 16.1 mph - N/A   Partly Cloudy
12:15 PM 91.4 °F 92.1 °F 62.6 °F 38% 29.85 in 10.0 mi North 16.1 mph - N/A   Scattered Clouds
12:35 PM 93.2 °F 94.1 °F 62.6 °F 36% 29.84 in 10.0 mi North 12.7 mph - N/A   Scattered Clouds
12:55 PM 93.2 °F 94.1 °F 62.6 °F 36% 29.84 in 10.0 mi North 10.4 mph - N/A   Partly Cloudy
1:15 PM 93.2 °F 94.1 °F 62.6 °F 36% 29.83 in 10.0 mi NNW 11.5 mph - N/A   Scattered Clouds
1:35 PM 93.2 °F 93.3 °F 60.8 °F 34% 29.83 in 10.0 mi NNW 10.4 mph - N/A   Scattered Clouds
1:55 PM 95.0 °F 94.4 °F 59.0 °F 30% 29.82 in 10.0 mi NNW 6.9 mph - N/A   Scattered Clouds
2:15 PM 95.0 °F 94.4 °F 59.0 °F 30% 29.81 in 10.0 mi West 3.5 mph - N/A Rain Light Rain
2:35 PM 96.8 °F 96.2 °F 59.0 °F 28% 29.80 in 10.0 mi SSE 3.5 mph - N/A Rain Light Rain
2:55 PM 98.6 °F 99.4 °F 60.8 °F 29% 29.78 in 10.0 mi WSW 5.8 mph - N/A Rain Light Rain
3:15 PM 98.6 °F 99.4 °F 60.8 °F 29% 29.78 in 10.0 mi South 4.6 mph - N/A Rain Light Rain
3:35 PM 98.6 °F 100.0 °F 62.6 °F 30% 29.77 in 10.0 mi SW 4.6 mph - N/A Rain Light Rain
3:55 PM 98.6 °F 100.0 °F 62.6 °F 30% 29.76 in 10.0 mi SW 4.6 mph - N/A Rain Light Rain
4:15 PM 98.6 °F 99.4 °F 60.8 °F 29% 29.76 in 10.0 mi SSW 5.8 mph - N/A Rain Light Rain
4:35 PM 100.4 °F 101.3 °F 60.8 °F 27% 29.75 in 10.0 mi SSW 5.8 mph - N/A Rain Light Rain
4:55 PM 98.6 °F 99.4 °F 60.8 °F 29% 29.74 in 10.0 mi West 4.6 mph - N/A Rain Light Rain
5:15 PM 98.6 °F 99.4 °F 60.8 °F 29% 29.74 in 10.0 mi SW 5.8 mph - N/A Rain Light Rain
5:35 PM 98.6 °F 98.5 °F 59.0 °F 27% 29.74 in 10.0 mi WSW 6.9 mph - N/A   Clear
5:55 PM 100.4 °F 100.2 °F 59.0 °F 25% 29.73 in 10.0 mi SW 5.8 mph - N/A   Clear
6:15 PM 98.6 °F 98.5 °F 59.0 °F 27% 29.73 in 10.0 mi WSW 4.6 mph - N/A   Clear
6:35 PM 98.6 °F 98.5 °F 59.0 °F 27% 29.73 in 10.0 mi SW 4.6 mph - N/A   Clear
6:55 PM 98.6 °F 98.5 °F 59.0 °F 27% 29.73 in 10.0 mi SW 3.5 mph - N/A   Clear
7:15 PM 96.8 °F 97.1 °F 60.8 °F 30% 29.73 in 10.0 mi South 3.5 mph - N/A   Clear
7:35 PM 95.0 °F 96.0 °F 62.6 °F 34% 29.73 in 10.0 mi South 3.5 mph - N/A   Clear
7:55 PM 95.0 °F 96.0 °F 62.6 °F 34% 29.74 in 10.0 mi ESE 3.5 mph - N/A   Clear
8:15 PM 93.2 °F 94.9 °F 64.4 °F 38% 29.74 in 10.0 mi East 9.2 mph - N/A   Clear
8:35 PM 93.2 °F 94.1 °F 62.6 °F 36% 29.75 in 10.0 mi East 8.1 mph - N/A   Clear
8:55 PM 93.2 °F 94.9 °F 64.4 °F 38% 29.75 in 10.0 mi East 8.1 mph - N/A   Clear
9:15 PM 91.4 °F 94.0 °F 66.2 °F 43% 29.76 in 10.0 mi East 6.9 mph - N/A   Clear
9:35 PM 91.4 °F 93.2 °F 64.4 °F 41% 29.76 in 10.0 mi East 5.8 mph - N/A   Clear
9:55 PM 91.4 °F 93.2 °F 64.4 °F 41% 29.76 in 10.0 mi ESE 8.1 mph - N/A   Clear
10:15 PM 91.4 °F 93.2 °F 64.4 °F 41% 29.76 in 10.0 mi East 8.1 mph - N/A   Clear
10:35 PM 89.6 °F 91.1 °F 64.4 °F 43% 29.77 in 10.0 mi Calm Calm - N/A   Clear
10:55 PM 89.6 °F 91.1 °F 64.4 °F 43% 29.77 in 10.0 mi NNW 3.5 mph - N/A   Clear
11:15 PM 91.4 °F 92.1 °F 62.6 °F 38% 29.77 in 10.0 mi Calm Calm - N/A   Clear
11:35 PM 89.6 °F 91.1 °F 64.4 °F 43% 29.77 in 10.0 mi Calm Calm - N/A   Clear
11:55 PM 89.6 °F 90.1 °F 62.6 °F 40% 29.77 in 10.0 mi NNE 4.6 mph - N/A   Clear